Tracking 21611 objects as of 21-Oct-2020
HD Live streaming from Space Station
objects crossing your sky now

GRIFEX

Track GRIFEX now!
10-day predictions
GRIFEX is classified as:


NORAD ID: 40379
Int'l Code: 2015-003D
Perigee: 432.6 km
Apogee: 613.0 km
Inclination: 99.1 °
Period: 94.9 minutes
Semi major axis: 6893 km
RCS: Unknown
Launch date: January 31, 2015
Source: United States (US)
Launch site: AIR FORCE WESTERN TEST RANGE (AFWTR)

Uplink (MHz):
Downlink (MHz): 437.480
Beacon (MHz):
Mode: 9k6/19k2bps GMSK
Call sign: KD8SPS
Status: Active

aabbcc
Your satellite tracking list
Your tracking list is empty




NASA's NSSDC Master Catalog

Two Line Element Set (TLE):
1 40379U 15003D   20295.16904899  .00001602  00000-0  70369-4 0  9994
2 40379  99.0903  12.3287 0130832 281.4791  77.1769 15.16747308315904
Source of the keplerian elements: Caltech